RH
29 40 49 49 40 49 48 45 32 28 24 67 84 92 84 77 80 87 88 89 81 78 68 58 52 48 44 45 42 39 36 44 46 50 53 52 55 63 68 73 83 87 92 90
44 56 37 34 40 41 44 48 45 28 44 71 85 99 86 82 90 92 92 94 92 80 71 62 56 50 47 46 44 40 41 44 46 44 42 41 45 49 54 62 67 77 78 84
53 39 31 33 37 46 50 50 46 35 68 70 74 90 85 81 85 83 89 88 86 91 84 74 63 56 51 46 43 38 37 39 41 39 41 38 35 38 48 55 56 60 66 67
46 38 30 34 38 39 49 42 46 46 63 71 70 79 96 89 94 94 96 97 96 93 86 80 77 66 55 48 43 39 39 38 36 37 38 35 34 37 37 37 47 52 58 68
49 48 52 43 44 42 52 39 50 63 77 78 70 85 95 86 94 97 97 96 97 94 92 91 85 74 59 50 45 41 37 35 33 31 34 32 33 36 34 31 36 40 50 55
50 46 60 59 41 44 41 57 66 77 86 96 80 75 96 96 91 98 97 96 96 95 94 93 94 85 70 54 47 43 39 36 35 36 35 37 35 34 34 35 34 34 37 45
68 73 66 68 54 41 68 80 96 96 96 94 81 85 97 96 98 94 99 98 97 84 94 93 97 92 77 58 51 47 42 39 40 36 34 33 32 30 33 37 37 37 36 35
98 93 88 79 80 77 78 83 92 93 97 93 88 96 93 96 96 94 95 99 85 90 88 95 97 96 88 75 60 52 47 43 42 38 35 35 35 33 35 33 34 37 35 33
98 95 93 83 89 88 92 96 95 96 89 94 96 96 94 94 95 95 96 92 96 94 94 94 98 98 98 92 77 64 48 46 44 40 39 36 34 33 31 31 30 29 28 30
80 96 90 69 76 96 95 94 96 96 96 96 97 99 93 98 96 94 95 98 95 93 95 90 91 96 98 98 96 80 58 35 34 35 36 36 35 33 30 29 30 30 29 25
72 87 74 74 94 95 92 96 94 94 95 96 100 92 93 95 95 96 97 95 96 97 98 97 96 84 91 94 92 80 64 50 38 31 26 27 29 32 31 30 30 30 28 27
80 93 99 92 94 95 96 96 96 96 94 96 95 94 96 96 96 91 93 93 97 96 97 97 98 96 85 90 94 98 90 80 68 59 56 54 42 32 28 28 32 32 30 28
77 90 97 77 74 84 95 99 99 96 95 98 97 93 96 96 96 88 88 89 89 93 94 94 84 88 92 93 93 91 89 89 87 83 85 81 75 65 60 52 44 35 34 33
77 90 75 86 74 89 93 93 100 91 98 100 94 98 97 96 95 81 82 84 90 91 91 88 79 56 54 57 61 64 70 78 82 83 80 76 77 77 74 69 67 65 54 41
78 85 84 85 80 91 86 85 98 98 96 84 82 92 91 94 90 85 83 77 79 87 82 84 82 59 58 59 57 58 59 61 71 75 66 74 76 67 67 67 68 69 67 66
70 92 73 78 58 59 75 70 81 92 100 100 100 98 95 92 92 88 84 77 79 82 82 71 59 58 64 58 54 51 51 64 63 62 63 58 57 60 66 70 72 68 73 71
81 91 91 93 56 54 68 84 82 85 93 88 96 80 94 91 87 90 81 90 90 92 73 60 55 62 56 58 55 55 54 55 66 63 67 66 60 61 64 69 72 74 74 75
65 90 90 94 67 86 65 66 65 64 80 82 92 94 84 83 86 84 93 88 87 73 59 54 60 57 57 57 58 60 58 57 61 65 66 64 63 61 60 69 73 75 80 80
66 90 85 79 89 61 62 59 58 57 66 68 83 82 79 88 82 78 59 65 54 54 55 59 60 63 61 62 66 68 65 66 65 63 65 66 67 67 67 71 73 76 78 81
57 82 76 86 74 77 71 53 43 41 65 60 63 84 85 78 96 80 56 50 49 52 58 62 67 69 68 66 71 74 72 74 73 74 76 71 70 73 75 76 76 76 83 85
73 84 84 87 93 80 56 50 44 59 62 63 62 79 92 89 78 70 59 54 54 61 66 65 74 72 70 74 80 82 75 72 75 79 72 68 72 78 75 73 73 75 75 82
89 89 94 84 84 91 61 57 56 61 88 77 80 86 90 75 72 68 59 58 61 66 67 69 76 74 72 78 84 85 80 78 78 77 78 76 71 67 67 67 66 68 70 72
92 88 92 81 92 79 83 78 84 94 90 91 94 83 88 86 71 57 59 69 72 70 73 74 77 79 78 79 82 87 78 81 85 88 85 80 78 77 75 80 80 82 76 77
84 92 85 80 71 84 82 88 95 96 96 96 96 93 90 80 73 75 81 85 79 77 78 76 83 89 86 76 79 84 83 86 91 91 87 84 87 88 89 84 86 89 87 86
95 89 100 92 81 82 83 92 95 99 98 97 93 92 94 96 90 86 93 87 79 78 77 79 85 94 87 80 81 82 84 89 90 92 90 88 92 88 90 88 87 88 88 93
96 94 98 96 77 84 83 83 97 100 98 92 96 97 95 96 94 85 92 81 82 78 77 84 94 92 82 87 86 80 83 93 97 96 95 92 98 95 94 95 94 88 88 85
Wind_Speed
1 2 7 10 5 4 4 2 6 2 3 7 4 5 7 7 10 11 10 9 8 7 6 8 9 8 8 7 7 6 6 7 6 8 6 4 3 3 3 2 1 2 1 3
2 6 7 4 6 5 5 3 4 2 5 6 3 6 5 8 5 5 6 8 8 6 6 6 6 5 3 7 7 7 7 6 6 6 1 3 8 4 6 5 3 2 3 3
6 2 1 5 4 5 4 8 6 5 3 6 9 3 3 4 4 6 7 5 6 6 6 5 2 2 3 5 5 7 7 6 4 4 3 5 3 6 5 4 5 5 4 5
3 4 2 3 3 3 5 5 5 8 3 4 2 4 4 3 4 6 6 6 6 6 6 5 6 2 3 4 5 6 6 6 5 5 3 4 1 2 2 4 4 4 4 5
3 4 3 2 1 1 2 0 3 2 5 3 4 3 0 5 0 3 5 7 6 6 6 6 8 6 6 6 6 6 5 4 3 3 4 4 3 3 4 4 6 6 6 5
1 1 3 2 2 2 2 4 5 4 3 6 6 4 3 4 5 2 2 5 7 7 8 9 7 1 8 8 8 7 5 4 2 3 3 3 4 6 6 4 3 4 5 5
2 2 4 4 1 1 5 5 1 2 3 4 2 5 1 1 2 4 2 4 5 6 8 8 8 7 7 10 9 7 5 6 5 4 4 5 6 6 5 4 2 2 2 3
3 3 4 7 2 1 2 3 3 6 4 4 1 4 2 2 4 2 7 3 7 7 7 9 10 10 9 7 7 5 4 5 6 6 6 6 6 6 6 4 4 3 2 2
3 2 1 1 2 2 2 3 1 2 2 3 3 4 4 4 5 5 6 7 7 7 7 8 12 11 9 6 4 3 2 3 5 5 6 6 6 6 5 4 4 3 2 2
3 3 3 2 1 2 1 0 2 1 3 4 2 3 3 5 4 4 4 5 6 6 6 7 11 11 10 8 4 1 1 1 2 3 3 4 4 4 4 4 3 3 2 1
4 3 5 2 4 1 4 2 3 1 1 2 3 5 4 6 4 5 4 5 3 3 4 5 8 11 10 8 6 3 3 2 1 0 1 1 2 1 2 2 2 1 0 0
1 4 1 5 2 1 1 1 0 2 3 2 3 3 1 5 5 5 4 3 2 2 3 6 10 11 12 12 11 9 6 4 3 2 2 2 3 4 4 3 2 2 2 2
1 1 2 6 4 2 4 3 1 2 2 1 3 3 2 4 4 1 2 1 1 1 3 3 7 8 9 10 10 10 9 8 7 4 3 3 3 3 4 5 6 6 6 4
2 2 4 4 5 2 2 2 2 3 2 2 3 3 2 5 5 3 0 1 1 2 1 0 4 8 10 13 13 11 9 8 7 5 5 5 5 4 4 5 6 8 9 9
3 2 2 2 3 2 3 1 1 3 3 3 3 5 8 7 6 3 2 2 2 3 4 2 1 5 8 10 12 12 12 11 7 6 7 7 7 7 7 7 7 8 9 10
4 0 1 2 1 1 2 3 4 3 2 3 1 2 1 0 2 1 3 3 2 1 3 3 3 5 6 8 10 12 12 13 11 8 7 6 7 9 9 9 8 9 10 10
3 2 2 2 4 2 2 3 1 1 2 5 2 6 5 2 4 3 4 3 3 3 2 2 3 3 5 7 9 11 12 12 10 9 7 7 7 8 9 10 10 10 10 11
2 2 2 1 3 3 4 3 3 1 2 4 1 4 7 6 3 2 3 5 4 2 2 2 3 6 7 9 10 12 12 11 10 8 6 5 7 9 10 10 10 11 11 12
3 3 2 2 1 2 2 1 2 3 3 4 4 5 4 3 3 4 5 5 3 3 3 2 4 7 9 11 11 13 12 11 10 9 9 9 10 11 11 11 11 11 13 13
3 4 3 2 3 2 3 4 2 1 3 3 4 5 5 5 2 4 6 3 4 4 3 5 6 7 9 10 11 13 13 12 11 11 12 13 13 13 14 13 12 12 13 14
3 3 2 1 1 1 3 3 4 4 4 3 3 4 5 4 4 3 4 3 5 4 4 6 6 8 9 9 10 11 12 13 13 15 17 16 15 16 16 16 16 16 15 15
1 2 1 1 3 1 4 4 4 4 3 3 1 3 4 4 3 3 4 4 5 6 6 7 8 10 10 9 9 11 13 12 15 15 16 17 18 18 19 19 19 19 19 19
2 4 3 4 2 1 2 4 3 4 4 3 2 4 3 3 4 2 3 4 8 10 10 10 10 12 12 10 9 11 13 14 13 15 17 17 18 17 18 19 19 18 18 20
5 2 1 4 4 4 6 4 3 4 4 3 3 3 3 5 4 4 4 5 9 10 11 11 11 12 15 13 11 12 13 12 13 16 17 16 17 17 17 17 18 19 19 21
3 2 2 4 5 8 3 3 3 3 4 4 5 5 5 3 5 4 4 9 12 12 13 11 13 14 16 15 15 13 12 12 14 15 16 16 15 18 19 18 18 20 21 20
2 3 2 4 6 5 9 5 3 5 7 8 8 4 7 8 7 8 10 15 14 15 14 13 13 15 16 14 15 15 12 11 13 15 14 15 16 18 18 20 22 20 20 21
Wind_Direction
189 138 212 211 203 170 152 195 204 191 125 90 72 88 34 26 48 45 39 33 29 39 63 93 106 116 120 117 119 117 124 129 149 142 114 96 94 116 107 66 100 195 82 35
12 238 231 216 195 204 218 216 211 73 52 86 111 77 58 43 52 40 41 37 27 22 31 64 103 115 104 129 129 132 136 142 154 149 147 170 156 146 131 125 127 150 113 54
187 231 83 184 193 184 211 206 202 169 123 66 133 96 149 77 64 53 49 41 31 16 0 358 325 116 125 135 139 142 141 147 162 211 219 173 174 142 133 147 148 137 131 109
229 310 232 175 211 183 220 189 209 153 149 184 175 214 201 149 81 38 17 33 23 5 351 334 343 262 195 158 150 147 140 140 150 150 175 171 186 158 158 166 126 124 144 168
268 1 360 169 96 293 245 98 114 86 150 97 171 89 217 147 113 31 355 19 10 357 343 325 316 306 203 176 156 149 147 135 142 167 181 202 229 222 173 153 134 123 120 129
88 61 44 328 317 318 324 86 49 73 72 217 185 169 219 180 190 125 350 15 7 348 348 345 337 328 168 166 157 145 143 117 105 140 157 154 167 155 151 150 134 107 102 107
343 31 348 14 275 80 51 108 115 176 193 215 309 185 184 284 132 127 137 22 6 4 7 18 27 49 122 139 143 141 128 107 101 124 127 129 145 154 155 155 154 132 93 93
4 313 11 337 34 351 66 157 176 193 184 196 44 199 242 180 103 95 80 58 46 31 21 17 48 62 75 93 117 127 122 121 112 111 114 120 131 137 145 149 147 136 71 26
20 241 151 339 352 354 205 226 167 129 141 102 123 5 347 119 90 69 66 51 33 35 27 27 33 47 50 52 69 73 97 130 129 119 116 123 128 134 133 138 146 147 129 78
264 332 331 47 312 44 34 221 146 195 208 207 333 262 216 160 145 100 82 78 52 36 34 43 30 33 39 36 35 22 53 122 136 135 139 132 126 129 135 139 140 145 141 126
144 100 295 356 17 312 353 19 22 358 5 172 151 262 224 167 153 111 87 91 85 48 38 34 56 52 47 49 49 55 49 34 17 301 242 230 202 172 153 153 161 180 202 78
3 144 293 234 264 164 123 113 129 119 288 45 141 269 254 145 119 98 65 62 83 70 31 44 47 51 59 56 49 42 33 23 357 323 298 267 257 255 254 251 253 259 271 291
304 346 14 348 356 30 58 358 43 61 79 229 130 244 280 131 112 89 116 11 354 84 42 26 55 45 41 43 44 43 37 38 36 16 352 334 308 282 276 274 269 267 266 272
71 110 155 188 213 170 13 1 41 104 104 187 209 167 204 162 152 172 111 26 310 193 112 33 39 40 47 45 41 29 11 7 10 2 3 3 355 339 325 307 293 281 272 268
79 154 160 250 234 173 174 139 147 109 211 146 247 170 178 164 180 197 231 260 161 163 153 186 103 32 42 34 21 10 4 4 325 311 342 340 331 326 321 318 312 298 281 271
355 305 115 323 254 188 94 105 111 113 148 76 179 28 148 107 84 287 272 298 260 205 169 144 27 19 36 22 8 357 349 348 342 300 303 329 330 320 319 317 308 297 291 282
56 79 50 293 5 46 352 227 148 165 190 147 144 222 159 187 224 224 256 217 215 154 117 3 349 2 351 348 344 345 341 333 336 344 303 305 324 328 324 312 304 304 299 287
41 67 86 226 15 29 256 255 227 158 212 210 226 184 176 183 211 212 209 167 201 254 301 336 323 318 323 324 324 325 327 326 325 333 345 335 328 322 318 311 312 309 305 302
65 98 46 94 175 283 53 11 137 139 274 198 165 169 178 98 77 296 194 190 202 204 240 269 300 304 305 310 314 318 320 321 318 320 316 315 320 319 316 305 302 304 302 300
83 84 107 63 92 46 268 319 25 122 340 214 181 176 159 131 172 250 172 176 219 208 232 281 289 292 296 302 310 314 316 316 314 318 311 308 306 307 302 300 301 301 294 294
358 359 87 2 112 330 321 333 317 69 250 337 207 182 151 181 203 170 177 228 197 215 252 288 283 293 299 304 308 307 311 308 312 305 306 306 300 297 294 293 290 290 289 288
130 82 325 66 55 322 9 348 110 230 294 283 146 185 194 226 198 234 259 263 261 282 291 290 293 294 299 301 303 300 300 309 309 310 309 307 304 301 296 292 287 284 284 284
25 163 204 156 213 319 283 207 252 170 214 263 193 238 204 216 237 259 261 267 274 285 292 293 292 295 296 300 298 295 300 307 308 309 310 310 310 306 304 300 297 294 287 283
331 50 132 40 309 269 282 292 256 202 231 258 235 224 198 228 236 253 260 259 267 272 279 287 289 289 293 302 297 293 302 303 302 305 309 312 311 312 308 301 296 291 287 285
208 9 335 276 310 317 353 256 241 278 251 257 239 222 233 231 259 240 252 258 266 273 276 276 279 282 289 299 299 302 303 300 298 299 303 307 305 306 307 303 297 293 288 279
188 192 104 245 245 203 269 266 239 252 257 267 252 244 234 230 248 245 256 266 271 275 274 270 272 280 289 294 296 300 304 302 294 291 292 297 298 298 298 298 297 296 283 278